TimeEDT,TemperatureF,Dew PointF,Humidity,Sea Level PressureIn,VisibilityMPH,Wind Direction,Wind SpeedMPH,Gust SpeedMPH,PrecipitationIn,Events,Conditions,WindDirDegrees,DateUTC
12:15 AM,69.8,67.6,93,29.94,10.0,WSW,6.9,-,N/A,,Scattered Clouds,240,2013-07-24 04:15:00
12:35 AM,69.8,68.0,94,29.95,10.0,WSW,9.2,-,N/A,,Overcast,250,2013-07-24 04:35:00
12:55 AM,69.3,68.2,96,29.95,10.0,WSW,6.9,-,N/A,,Overcast,250,2013-07-24 04:55:00
1:15 AM,69.4,68.2,96,29.95,10.0,WSW,6.9,-,N/A,,Overcast,250,2013-07-24 05:15:00
1:35 AM,69.1,68.2,97,29.94,7.0,WSW,9.2,-,N/A,,Overcast,250,2013-07-24 05:35:00
1:55 AM,68.9,68.2,98,29.92,7.0,SW,4.6,-,N/A,,Overcast,230,2013-07-24 05:55:00
2:15 AM,68.9,68.0,97,29.92,7.0,SSW,3.5,-,N/A,,Overcast,200,2013-07-24 06:15:00
2:35 AM,68.9,68.0,97,29.91,7.0,SSW,4.6,-,N/A,,Overcast,210,2013-07-24 06:35:00
2:55 AM,68.9,68.0,97,29.91,5.0,SW,4.6,-,N/A,,Overcast,220,2013-07-24 06:55:00
3:15 AM,68.9,68.0,97,29.91,7.0,WSW,5.8,-,N/A,,Overcast,240,2013-07-24 07:15:00
3:35 AM,68.9,68.0,97,29.91,7.0,WSW,6.9,-,N/A,,Overcast,240,2013-07-24 07:35:00
3:55 AM,68.5,67.5,96,29.89,7.0,SSW,5.8,-,N/A,,Overcast,210,2013-07-24 07:55:00
4:15 AM,68.4,67.5,97,29.90,7.0,WSW,8.1,-,N/A,,Overcast,240,2013-07-24 08:15:00
4:35 AM,68.4,67.5,97,29.89,7.0,WSW,3.5,-,N/A,,Overcast,240,2013-07-24 08:35:00
4:55 AM,68.2,67.3,97,29.89,7.0,SW,5.8,-,N/A,,Overcast,220,2013-07-24 08:55:00
5:15 AM,68.2,67.3,97,29.90,7.0,SW,3.5,-,N/A,,Overcast,220,2013-07-24 09:15:00
5:35 AM,68.0,66.9,96,29.91,7.0,SW,5.8,-,N/A,Thunderstorm,Overcast,230,2013-07-24 09:35:00
5:55 AM,68.0,66.7,96,29.91,7.0,SW,8.1,-,N/A,,Mostly Cloudy,230,2013-07-24 09:55:00
6:15 AM,68.0,67.1,97,29.93,7.0,NNW,3.5,-,N/A,,Overcast,330,2013-07-24 10:15:00
6:35 AM,64.9,63.1,94,29.94,1.8,NNW,12.7,21.9,0.29,Rain-Thunderstorm,Heavy Thunderstorms and Rain,330,2013-07-24 10:35:00
6:55 AM,62.8,61.5,96,29.94,5.0,West,4.6,-,0.46,Rain,Heavy Rain,260,2013-07-24 10:55:00
7:15 AM,63.0,61.9,96,29.94,10.0,Calm,Calm,-,N/A,,Mostly Cloudy,0,2013-07-24 11:15:00
7:35 AM,62.8,62.6,99,29.94,7.0,SSW,3.5,-,N/A,,Mostly Cloudy,210,2013-07-24 11:35:00
7:55 AM,64.2,63.0,96,29.93,10.0,Calm,Calm,-,N/A,,Mostly Cloudy,0,2013-07-24 11:55:00
8:15 AM,64.9,64.2,98,29.93,10.0,SW,3.5,-,N/A,,Overcast,220,2013-07-24 12:15:00
8:35 AM,66.2,65.5,98,29.94,7.0,SW,3.5,-,N/A,,Overcast,230,2013-07-24 12:35:00
8:55 AM,65.3,64.9,99,29.94,2.0,Calm,Calm,-,N/A,,Overcast,0,2013-07-24 12:55:00
9:15 AM,66.9,66.4,98,29.95,5.0,SW,3.5,-,N/A,,Overcast,230,2013-07-24 13:15:00
9:35 AM,67.8,66.9,97,29.94,5.0,SSW,3.5,-,N/A,,Overcast,200,2013-07-24 13:35:00
9:55 AM,68.9,67.8,96,29.95,7.0,South,3.5,-,N/A,,Overcast,190,2013-07-24 13:55:00
10:15 AM,69.6,68.0,95,29.95,7.0,Calm,Calm,-,N/A,,Overcast,0,2013-07-24 14:15:00
10:35 AM,68.7,68.2,98,29.96,2.0,Calm,Calm,-,N/A,,Overcast,0,2013-07-24 14:35:00
10:55 AM,68.5,68.0,98,29.96,2.5,Calm,Calm,-,N/A,,Mostly Cloudy,0,2013-07-24 14:55:00
11:15 AM,69.8,68.0,94,29.96,7.0,NNW,4.6,-,N/A,,Mostly Cloudy,330,2013-07-24 15:15:00
11:35 AM,69.8,68.2,95,29.96,7.0,NNW,5.8,-,N/A,,Mostly Cloudy,340,2013-07-24 15:35:00
11:55 AM,70.7,67.1,88,29.96,10.0,NNW,3.5,-,N/A,,Overcast,330,2013-07-24 15:55:00
12:15 PM,71.8,66.7,84,29.96,10.0,Calm,Calm,-,N/A,,Mostly Cloudy,0,2013-07-24 16:15:00
12:35 PM,72.5,67.1,83,29.95,10.0,North,3.5,-,N/A,,Mostly Cloudy,10,2013-07-24 16:35:00
12:55 PM,72.5,65.7,79,29.95,10.0,NNW,6.9,-,N/A,,Scattered Clouds,330,2013-07-24 16:55:00
1:15 PM,73.4,64.4,73,29.95,10.0,North,3.5,-,N/A,,Clear,350,2013-07-24 17:15:00
1:35 PM,74.3,64.4,71,29.95,10.0,NNW,3.5,-,N/A,,Scattered Clouds,340,2013-07-24 17:35:00
1:55 PM,74.3,63.9,70,29.95,10.0,NNW,5.8,-,N/A,,Scattered Clouds,330,2013-07-24 17:55:00
2:15 PM,74.3,63.3,68,29.95,10.0,NNW,3.5,-,N/A,,Scattered Clouds,330,2013-07-24 18:15:00
2:35 PM,75.0,64.0,69,29.96,10.0,NNW,6.9,-,N/A,,Scattered Clouds,340,2013-07-24 18:35:00
2:55 PM,74.5,63.1,68,29.95,10.0,NNW,6.9,-,N/A,,Scattered Clouds,330,2013-07-24 18:55:00
3:15 PM,74.3,63.7,69,29.95,10.0,North,5.8,-,N/A,,Overcast,350,2013-07-24 19:15:00
3:35 PM,75.2,62.8,65,29.95,10.0,NNW,6.9,-,N/A,,Mostly Cloudy,330,2013-07-24 19:35:00
3:55 PM,74.3,63.3,68,29.95,10.0,NNW,6.9,-,N/A,,Scattered Clouds,330,2013-07-24 19:55:00
4:15 PM,73.9,63.1,69,29.94,10.0,NNW,5.8,-,N/A,,Mostly Cloudy,330,2013-07-24 20:15:00
4:35 PM,75.2,63.0,66,29.94,10.0,NNW,8.1,-,N/A,,Scattered Clouds,330,2013-07-24 20:35:00
4:55 PM,74.8,61.2,62,29.94,10.0,NW,5.8,-,N/A,,Scattered Clouds,320,2013-07-24 20:55:00
5:15 PM,76.5,62.8,62,29.94,10.0,NNW,5.8,-,N/A,,Scattered Clouds,330,2013-07-24 21:15:00
5:35 PM,74.5,61.0,63,29.94,10.0,NW,5.8,-,N/A,,Scattered Clouds,320,2013-07-24 21:35:00
5:55 PM,74.5,62.8,67,29.94,10.0,NW,6.9,-,N/A,,Mostly Cloudy,320,2013-07-24 21:55:00
6:15 PM,73.6,63.7,71,29.94,10.0,NNW,5.8,-,N/A,,Mostly Cloudy,330,2013-07-24 22:15:00
6:35 PM,72.7,62.2,70,29.94,10.0,NW,6.9,-,N/A,,Overcast,320,2013-07-24 22:35:00
6:55 PM,71.8,62.8,73,29.94,10.0,NNW,6.9,-,N/A,,Overcast,330,2013-07-24 22:55:00
7:15 PM,71.6,63.7,76,29.94,10.0,NNW,6.9,-,N/A,,Overcast,330,2013-07-24 23:15:00
7:35 PM,71.6,63.5,76,29.95,10.0,NNW,5.8,-,N/A,,Overcast,340,2013-07-24 23:35:00
7:55 PM,70.7,63.3,77,29.95,10.0,NNW,8.1,-,N/A,,Overcast,330,2013-07-24 23:55:00
8:15 PM,69.8,63.9,81,29.97,10.0,North,5.8,-,N/A,,Scattered Clouds,350,2013-07-25 00:15:00
8:35 PM,68.4,63.7,85,29.98,10.0,North,4.6,-,N/A,,Scattered Clouds,360,2013-07-25 00:35:00
8:55 PM,67.8,63.3,85,29.98,10.0,North,4.6,-,N/A,,Mostly Cloudy,360,2013-07-25 00:55:00
9:15 PM,67.1,63.1,87,29.99,10.0,North,4.6,-,N/A,,Mostly Cloudy,10,2013-07-25 01:15:00
9:35 PM,66.6,63.0,88,29.99,10.0,NNE,4.6,-,N/A,,Mostly Cloudy,20,2013-07-25 01:35:00
9:55 PM,66.2,62.6,88,29.99,10.0,North,4.6,-,N/A,,Mostly Cloudy,360,2013-07-25 01:55:00
10:15 PM,65.7,62.8,90,30.00,10.0,NE,3.5,-,N/A,,Mostly Cloudy,40,2013-07-25 02:15:00
10:35 PM,65.7,62.6,90,30.00,10.0,NNE,4.6,-,N/A,,Overcast,30,2013-07-25 02:35:00
10:55 PM,65.3,62.2,90,30.01,10.0,NNE,4.6,-,N/A,,Overcast,30,2013-07-25 02:55:00
11:15 PM,64.6,62.4,93,30.01,10.0,NNE,4.6,-,N/A,,Scattered Clouds,30,2013-07-25 03:15:00
11:35 PM,64.2,61.9,92,30.01,10.0,NE,3.5,-,N/A,,Mostly Cloudy,40,2013-07-25 03:35:00
11:55 PM,63.7,61.9,94,30.01,10.0,NNE,3.5,-,N/A,,Scattered Clouds,30,2013-07-25 03:55:00